Location: Alexandria
(38.8050°N, 77.0470°W)
Time: 22:49:41
(UTC-05:00)

Hubble Space Telescope - Pass Details

Date: 18 February 2018
Orbit: 537 x 541 km, 28.5° (Epoch: 24 February)

Event Time Altitude Azimuth Distance (km) Brightness Sun altitude
Exits shadow 06:00:45 - 219° (SW) 2,671 4.0 -11.3°
Rises 06:00:45 0° 219° (SW) 2,670 4.0 -11.3°
Reaches altitude 10° 06:04:16 10° 188° (S) 1,782 3.4 -10.7°
Maximum altitude 06:05:54 12° 164° (SSE) 1,652 3.6 -10.3°
Drops below altitude 10° 06:07:33 10° 140° (SE) 1,785 4.1 -10.0°
Sets 06:11:04 0° 110° (ESE) 2,679 6.3 -9.3°
